Time,TemperatureF,DewpointF,PressureIn,WindDirection,WindDirectionDegrees,WindSpeedMPH,WindSpeedGustMPH,Humidity,HourlyPrecipIn,Conditions,Clouds,dailyrainin,SolarRadiationWatts/m^2,SoftwareType,DateUTC
2013-02-18 00:09:00,28.7,23.0,29.85,SE,146,15.0,22.0,79,0.00,,,0.00,0,weatherlink.com 1.10,2013-02-18 06:09:00,
2013-02-18 00:24:00,28.9,23.0,29.85,SE,144,14.0,23.0,78,0.00,,,0.00,0,weatherlink.com 1.10,2013-02-18 06:24:00,
2013-02-18 00:39:00,29.1,23.0,29.84,SSE,154,13.0,21.0,78,0.00,,,0.00,0,weatherlink.com 1.10,2013-02-18 06:39:00,
2013-02-18 00:54:00,28.9,23.0,29.83,SSE,155,15.0,20.0,79,0.00,,,0.00,0,weatherlink.com 1.10,2013-02-18 06:54:00,
2013-02-18 01:09:00,29.3,23.0,29.82,SSE,161,17.0,25.0,78,0.00,,,0.00,0,weatherlink.com 1.10,2013-02-18 07:09:00,
2013-02-18 01:24:00,29.5,23.0,29.82,SSE,154,21.0,21.0,78,0.00,,,0.00,0,weatherlink.com 1.10,2013-02-18 07:24:00,
2013-02-18 01:39:00,29.7,23.0,29.80,SSE,148,17.0,21.0,77,0.00,,,0.00,0,weatherlink.com 1.10,2013-02-18 07:39:00,
2013-02-18 01:54:00,29.7,24.0,29.80,SSE,152,15.0,20.0,78,0.00,,,0.00,0,weatherlink.com 1.10,2013-02-18 07:54:00,
2013-02-18 02:09:00,29.5,23.0,29.78,SSE,148,14.0,21.0,78,0.00,,,0.00,0,weatherlink.com 1.10,2013-02-18 08:09:00,
2013-02-18 02:24:00,29.6,24.0,29.77,SSE,148,17.0,21.0,78,0.00,,,0.00,0,weatherlink.com 1.10,2013-02-18 08:24:00,
2013-02-18 02:39:00,29.6,24.0,29.76,SSE,158,14.0,20.0,79,0.00,,,0.00,0,weatherlink.com 1.10,2013-02-18 08:39:00,
2013-02-18 02:54:00,29.6,24.0,29.76,SSE,152,11.0,19.0,79,0.00,,,0.00,0,weatherlink.com 1.10,2013-02-18 08:54:00,
2013-02-18 03:09:00,29.7,24.0,29.74,SSE,150,18.0,22.0,79,0.00,,,0.00,0,weatherlink.com 1.10,2013-02-18 09:09:00,
2013-02-18 03:24:00,30.1,24.0,29.73,SSE,155,19.0,22.0,79,0.00,,,0.00,0,weatherlink.com 1.10,2013-02-18 09:24:00,
2013-02-18 03:39:00,30.1,24.0,29.72,SSE,159,16.0,23.0,78,0.00,,,0.00,0,weatherlink.com 1.10,2013-02-18 09:39:00,
2013-02-18 03:54:00,30.1,24.0,29.71,SSE,153,17.0,22.0,79,0.00,,,0.00,0,weatherlink.com 1.10,2013-02-18 09:54:00,
2013-02-18 04:09:00,30.2,24.0,29.70,SSE,158,20.0,23.0,79,0.00,,,0.00,0,weatherlink.com 1.10,2013-02-18 10:09:00,
2013-02-18 04:24:00,30.2,24.0,29.70,SSE,160,16.0,23.0,79,0.00,,,0.00,0,weatherlink.com 1.10,2013-02-18 10:24:00,
2013-02-18 04:39:00,30.1,24.0,29.69,SSE,163,13.0,27.0,79,0.00,,,0.00,0,weatherlink.com 1.10,2013-02-18 10:39:00,
2013-02-18 04:54:00,29.8,24.0,29.69,SSE,164,14.0,21.0,80,0.00,,,0.00,0,weatherlink.com 1.10,2013-02-18 10:54:00,
2013-02-18 05:09:00,29.9,24.0,29.68,SSE,151,19.0,22.0,80,0.00,,,0.00,0,weatherlink.com 1.10,2013-02-18 11:09:00,
2013-02-18 05:24:00,29.7,25.0,29.67,SSE,154,15.0,20.0,81,0.00,,,0.00,0,weatherlink.com 1.10,2013-02-18 11:24:00,
2013-02-18 05:39:00,29.7,25.0,29.66,SSE,157,14.0,21.0,81,0.00,,,0.00,0,weatherlink.com 1.10,2013-02-18 11:39:00,
2013-02-18 05:54:00,29.8,25.0,29.66,SSE,158,16.0,22.0,82,0.00,,,0.00,0,weatherlink.com 1.10,2013-02-18 11:54:00,
2013-02-18 06:09:00,29.7,25.0,29.65,SSE,155,18.0,20.0,82,0.00,,,0.00,0,weatherlink.com 1.10,2013-02-18 12:09:00,
2013-02-18 06:24:00,30.0,25.0,29.65,SSE,156,14.0,21.0,82,0.00,,,0.00,0,weatherlink.com 1.10,2013-02-18 12:24:00,
2013-02-18 06:39:00,29.9,25.0,29.64,SE,146,14.0,19.0,83,0.00,,,0.00,0,weatherlink.com 1.10,2013-02-18 12:39:00,
2013-02-18 06:54:00,30.1,26.0,29.65,SSE,161,9.0,16.0,83,0.00,,,0.00,0,weatherlink.com 1.10,2013-02-18 12:54:00,
2013-02-18 07:10:00,29.9,25.0,29.65,SSE,168,9.0,14.0,83,0.00,,,0.00,16,weatherlink.com 1.10,2013-02-18 13:10:00,
2013-02-18 07:25:00,30.2,26.0,29.65,SSE,159,9.0,12.0,83,0.00,,,0.00,32,weatherlink.com 1.10,2013-02-18 13:25:00,
2013-02-18 07:40:00,30.8,27.0,29.64,South,173,14.0,16.0,84,0.00,,,0.00,51,weatherlink.com 1.10,2013-02-18 13:40:00,
2013-02-18 07:55:00,31.3,27.0,29.63,South,173,12.0,15.0,83,0.00,,,0.00,74,weatherlink.com 1.10,2013-02-18 13:55:00,
2013-02-18 08:10:00,31.7,27.0,29.63,SSE,159,11.0,16.0,84,0.00,,,0.00,98,weatherlink.com 1.10,2013-02-18 14:10:00,
2013-02-18 08:25:00,32.1,28.0,29.63,SSE,159,11.0,14.0,83,0.00,,,0.00,111,weatherlink.com 1.10,2013-02-18 14:25:00,
2013-02-18 08:40:00,32.7,28.0,29.62,SSE,159,10.0,16.0,83,0.00,,,0.00,139,weatherlink.com 1.10,2013-02-18 14:40:00,
2013-02-18 08:55:00,33.6,29.0,29.61,South,169,13.0,16.0,83,0.00,,,0.00,202,weatherlink.com 1.10,2013-02-18 14:55:00,
2013-02-18 09:10:00,34.4,29.0,29.61,SSE,160,9.0,15.0,82,0.00,,,0.00,197,weatherlink.com 1.10,2013-02-18 15:10:00,
2013-02-18 09:25:00,35.2,30.0,29.60,SSE,167,11.0,16.0,82,0.00,,,0.00,229,weatherlink.com 1.10,2013-02-18 15:25:00,
2013-02-18 09:40:00,36.4,31.0,29.59,South,184,16.0,24.0,80,0.00,,,0.00,214,weatherlink.com 1.10,2013-02-18 15:40:00,
2013-02-18 09:55:00,37.1,31.0,29.59,South,187,10.0,21.0,80,0.00,,,0.00,214,weatherlink.com 1.10,2013-02-18 15:55:00,
2013-02-18 10:10:00,38.2,32.0,29.58,South,187,16.0,19.0,79,0.00,,,0.00,287,weatherlink.com 1.10,2013-02-18 16:10:00,
2013-02-18 10:25:00,39.8,33.0,29.58,South,185,20.0,22.0,78,0.00,,,0.00,327,weatherlink.com 1.10,2013-02-18 16:25:00,
2013-02-18 10:40:00,40.9,34.0,29.57,SSW,194,14.0,22.0,76,0.00,,,0.00,359,weatherlink.com 1.10,2013-02-18 16:40:00,
2013-02-18 10:55:00,41.8,35.0,29.56,South,181,12.0,21.0,77,0.00,,,0.00,439,weatherlink.com 1.10,2013-02-18 16:55:00,
2013-02-18 11:10:00,42.4,35.0,29.56,South,186,17.0,21.0,75,0.00,,,0.00,274,weatherlink.com 1.10,2013-02-18 17:10:00,
2013-02-18 11:26:00,43.4,36.0,29.55,SSW,197,10.0,17.0,75,0.00,,,0.00,446,weatherlink.com 1.10,2013-02-18 17:26:00,
2013-02-18 11:41:00,44.5,36.0,29.54,SSW,196,12.0,21.0,73,0.00,,,0.00,341,weatherlink.com 1.10,2013-02-18 17:41:00,
2013-02-18 11:56:00,45.4,37.0,29.54,SSW,199,17.0,20.0,72,0.00,,,0.00,322,weatherlink.com 1.10,2013-02-18 17:56:00,
2013-02-18 12:11:00,45.5,38.0,29.53,SSW,199,14.0,22.0,74,0.00,,,0.00,457,weatherlink.com 1.10,2013-02-18 18:11:00,
2013-02-18 12:26:00,46.8,38.0,29.52,SSW,205,15.0,21.0,72,0.00,,,0.00,501,weatherlink.com 1.10,2013-02-18 18:26:00,
2013-02-18 12:41:00,48.2,40.0,29.51,SSW,211,16.0,19.0,72,0.00,,,0.00,628,weatherlink.com 1.10,2013-02-18 18:41:00,
2013-02-18 12:56:00,48.7,40.0,29.50,SSW,205,10.0,14.0,71,0.00,,,0.00,323,weatherlink.com 1.10,2013-02-18 18:56:00,
2013-02-18 13:11:00,47.7,39.0,29.50,SW,216,7.0,11.0,73,0.00,,,0.00,90,weatherlink.com 1.10,2013-02-18 19:11:00,
2013-02-18 13:26:00,46.4,39.0,29.50,SW,227,13.0,13.0,74,0.00,,,0.00,33,weatherlink.com 1.10,2013-02-18 19:26:00,
2013-02-18 13:41:00,46.1,39.0,29.49,SW,232,6.0,12.0,75,0.00,,,0.00,67,weatherlink.com 1.10,2013-02-18 19:41:00,
2013-02-18 13:56:00,45.9,39.0,29.48,SW,230,5.0,8.0,76,0.00,,,0.00,56,weatherlink.com 1.10,2013-02-18 19:56:00,
2013-02-18 14:11:00,45.6,39.0,29.48,SW,233,5.0,7.0,77,0.00,,,0.00,28,weatherlink.com 1.10,2013-02-18 20:11:00,
2013-02-18 14:26:00,44.7,39.0,29.48,SW,233,5.0,6.0,80,0.00,,,0.00,28,weatherlink.com 1.10,2013-02-18 20:26:00,
2013-02-18 14:41:00,43.9,38.0,29.48,SW,214,7.0,7.0,81,0.00,,,0.00,18,weatherlink.com 1.10,2013-02-18 20:41:00,
2013-02-18 14:56:00,42.7,39.0,29.47,SSW,210,5.0,6.0,86,0.01,,,0.01,19,weatherlink.com 1.10,2013-02-18 20:56:00,
2013-02-18 15:11:00,42.6,39.0,29.47,SW,214,5.0,7.0,86,0.02,,,0.02,28,weatherlink.com 1.10,2013-02-18 21:11:00,
2013-02-18 15:26:00,42.8,40.0,29.46,SW,229,6.0,8.0,88,0.03,,,0.03,14,weatherlink.com 1.10,2013-02-18 21:26:00,
2013-02-18 15:41:00,42.5,39.0,29.46,WSW,244,6.0,8.0,87,0.03,,,0.03,16,weatherlink.com 1.10,2013-02-18 21:41:00,
2013-02-18 15:56:00,42.5,39.0,29.46,WSW,250,2.0,5.0,88,0.03,,,0.04,12,weatherlink.com 1.10,2013-02-18 21:56:00,
2013-02-18 16:11:00,41.9,39.0,29.45,WSW,252,2.0,6.0,88,0.02,,,0.04,9,weatherlink.com 1.10,2013-02-18 22:11:00,
2013-02-18 16:26:00,39.8,36.0,29.46,WNW,302,13.0,19.0,85,0.02,,,0.05,9,weatherlink.com 1.10,2013-02-18 22:26:00,
2013-02-18 16:41:00,38.1,35.0,29.47,WNW,299,13.0,19.0,88,0.03,,,0.06,5,weatherlink.com 1.10,2013-02-18 22:41:00,
2013-02-18 16:56:00,37.4,35.0,29.47,NW,306,14.0,15.0,89,0.04,,,0.08,0,weatherlink.com 1.10,2013-02-18 22:56:00,
2013-02-18 17:11:00,36.2,34.0,29.47,NW,310,17.0,19.0,90,0.07,,,0.11,0,weatherlink.com 1.10,2013-02-18 23:11:00,
2013-02-18 17:26:00,34.8,33.0,29.47,NW,320,16.0,20.0,91,0.08,,,0.13,0,weatherlink.com 1.10,2013-02-18 23:26:00,
2013-02-18 17:41:00,33.4,31.0,29.47,NW,321,13.0,17.0,92,0.07,,,0.13,0,weatherlink.com 1.10,2013-02-18 23:41:00,
2013-02-18 17:56:00,32.9,31.0,29.48,NW,304,13.0,16.0,94,0.05,,,0.13,0,weatherlink.com 1.10,2013-02-18 23:56:00,
2013-02-18 18:11:00,32.7,31.0,29.48,WNW,300,7.0,14.0,94,0.02,,,0.13,0,weatherlink.com 1.10,2013-02-19 00:11:00,
2013-02-18 18:26:00,32.5,31.0,29.48,NW,308,9.0,12.0,94,0.00,,,0.13,0,weatherlink.com 1.10,2013-02-19 00:26:00,
2013-02-18 18:41:00,32.4,31.0,29.48,NW,312,10.0,12.0,95,0.00,,,0.13,0,weatherlink.com 1.10,2013-02-19 00:41:00,
2013-02-18 18:56:00,31.9,31.0,29.48,WNW,287,10.0,14.0,95,0.00,,,0.13,0,weatherlink.com 1.10,2013-02-19 00:56:00,
2013-02-18 19:11:00,31.3,30.0,29.48,WNW,301,9.0,15.0,95,0.00,,,0.13,0,weatherlink.com 1.10,2013-02-19 01:11:00,
2013-02-18 19:26:00,30.6,29.0,29.48,WNW,295,11.0,16.0,95,0.00,,,0.13,0,weatherlink.com 1.10,2013-02-19 01:26:00,
2013-02-18 19:41:00,29.5,28.0,29.49,WNW,300,13.0,18.0,94,0.00,,,0.13,0,weatherlink.com 1.10,2013-02-19 01:41:00,
2013-02-18 19:56:00,28.8,27.0,29.50,WNW,300,15.0,19.0,94,0.00,,,0.13,0,weatherlink.com 1.10,2013-02-19 01:56:00,
2013-02-18 20:11:00,27.7,26.0,29.50,WNW,297,11.0,19.0,93,0.00,,,0.13,0,weatherlink.com 1.10,2013-02-19 02:11:00,
2013-02-18 20:26:00,27.0,25.0,29.50,WNW,296,12.0,20.0,92,0.00,,,0.13,0,weatherlink.com 1.10,2013-02-19 02:26:00,
2013-02-18 20:41:00,25.8,24.0,29.52,WNW,288,16.0,21.0,91,0.00,,,0.13,0,weatherlink.com 1.10,2013-02-19 02:41:00,
2013-02-18 20:56:00,24.7,22.0,29.53,WNW,282,16.0,20.0,89,0.00,,,0.13,0,weatherlink.com 1.10,2013-02-19 02:56:00,
2013-02-18 21:12:00,23.6,21.0,29.53,WNW,294,12.0,21.0,89,0.00,,,0.13,0,weatherlink.com 1.10,2013-02-19 03:12:00,
2013-02-18 21:27:00,22.4,19.0,29.55,NW,314,13.0,22.0,87,0.00,,,0.13,0,weatherlink.com 1.10,2013-02-19 03:27:00,
2013-02-18 21:42:00,22.0,19.0,29.55,West,279,24.0,24.0,88,0.00,,,0.13,0,weatherlink.com 1.10,2013-02-19 03:42:00,
2013-02-18 21:57:00,20.6,17.0,29.57,West,265,11.0,24.0,87,0.00,,,0.13,0,weatherlink.com 1.10,2013-02-19 03:57:00,
2013-02-18 22:12:00,19.9,17.0,29.58,NW,304,12.0,24.0,87,0.00,,,0.13,0,weatherlink.com 1.10,2013-02-19 04:12:00,
2013-02-18 22:27:00,19.4,16.0,29.59,WNW,298,9.0,21.0,87,0.00,,,0.13,0,weatherlink.com 1.10,2013-02-19 04:27:00,
2013-02-18 22:42:00,19.1,16.0,29.60,West,279,14.0,21.0,86,0.00,,,0.13,0,weatherlink.com 1.10,2013-02-19 04:42:00,
2013-02-18 22:57:00,18.8,15.0,29.60,WNW,300,11.0,22.0,86,0.00,,,0.13,0,weatherlink.com 1.10,2013-02-19 04:57:00,
2013-02-18 23:12:00,18.8,15.0,29.61,WNW,296,17.0,23.0,86,0.00,,,0.13,0,weatherlink.com 1.10,2013-02-19 05:12:00,
2013-02-18 23:27:00,18.8,15.0,29.61,NW,306,13.0,18.0,86,0.00,,,0.13,0,weatherlink.com 1.10,2013-02-19 05:27:00,
2013-02-18 23:42:00,18.2,15.0,29.62,WNW,288,13.0,20.0,86,0.00,,,0.13,0,weatherlink.com 1.10,2013-02-19 05:42:00,
2013-02-18 23:57:00,17.7,14.0,29.62,WNW,297,15.0,20.0,85,0.00,,,0.13,0,weatherlink.com 1.10,2013-02-19 05:57:00,